Location: Black Swamp Observatory
(41.3920°N, 84.1250°W)
Time: 22:27:34
(UTC-04:00)

Amateur Radio Satellites - All Passes

Search period start: 27 March 2017 21:57
Search period end: 28 March 2017 21:57
Location: Black Swamp Observatory, 41.3920°N, 84.1250°W

Satellite Date Start Highest point End Downlink Frequencies (MHz)
Time Altitude Azimuth
ISS 27 Mar 21:59:45 22:02:57 55° 329° (NNW) 22:06:11 437.550
STRAND 1 27 Mar 22:10:38 22:14:53 27° 294° (WNW) 22:19:06 437.568
AO-73 27 Mar 22:10:52 22:15:09 41° 262° (W) 22:19:23 145.935
HO-68 27 Mar 22:19:01 22:22:12 13° 272° (W) 22:25:22 435.675
PRISM 27 Mar 22:24:40 22:27:41 19° 94° (E) 22:30:42 437.425
DELFI C3 27 Mar 22:25:00 22:28:54 76° 76° (ENE) 22:32:50 145.870
YUBILEINY 27 Mar 22:28:53 22:30:18 10° 288° (WNW) 22:31:45 435.215
BEESAT 3 27 Mar 22:30:50 22:34:06 26° 113° (ESE) 22:37:25 437.485
AO-85 27 Mar 22:35:58 22:39:52 31° 310° (NW) 22:43:34 145.980
UWE-3 27 Mar 22:45:06 22:46:25 11° 271° (W) 22:47:44 435.000/436.395/437.385
BEESAT 2 27 Mar 22:50:20 22:52:51 16° 110° (ESE) 22:55:23 435.950
Oscar 11 27 Mar 23:13:12 23:14:08 11° 271° (W) 23:15:03 .
RS-15 27 Mar 23:16:15 23:28:24 70° 244° (WSW) 23:39:58 29.354- 29.394
TIGRISAT 27 Mar 23:26:37 23:30:50 44° 99° (E) 23:34:57 435.000
FO-29 27 Mar 23:30:14 23:35:27 32° 94° (E) 23:40:14 435.910
Tancredo 1 27 Mar 23:31:39 23:33:44 16° 347° (NNW) 23:35:49 437.200
LO-87 27 Mar 23:34:55 23:38:26 55° 75° (ENE) 23:42:00 145.935 - 145.965
UNISAT 6 27 Mar 23:37:06 23:41:30 64° 101° (E) 23:45:46 437.425
ISS 27 Mar 23:37:45 23:39:58 17° 347° (NNW) 23:42:12 437.550
VELOX 1 27 Mar 23:38:14 23:39:27 11° 60° (ENE) 23:40:40 145.980
SO-50 27 Mar 23:44:48 23:49:04 40° 51° (NE) 23:53:18 436.795
PRISM 27 Mar 23:59:16 00:03:03 34° 290° (WNW) 00:06:50 437.425
ESTCUBE 1 28 Mar 00:04:37 00:09:02 66° 74° (ENE) 00:13:29 437.505/2401.250
BEESAT 3 28 Mar 00:08:09 00:11:37 29° 311° (NW) 00:15:07 437.485
SPROUT 28 Mar 00:09:43 00:12:49 20° 66° (ENE) 00:15:56 437.525
AIST 2D 28 Mar 00:11:48 00:14:13 18° 94° (E) 00:16:38 435.315
POLYITAN 1 28 Mar 00:19:49 00:22:03 14° 91° (E) 00:24:17 437.675
QB50P2 28 Mar 00:24:02 00:26:51 17° 93° (E) 00:29:37 145.880/145.840
50 SAT 28 Mar 00:25:08 00:27:21 16° 67° (ENE) 00:29:35 437.505
BEESAT 2 28 Mar 00:26:28 00:30:15 43° 307° (NW) 00:34:07 435.950
DUCHIFAT 1 28 Mar 00:34:03 00:36:46 17° 92° (E) 00:39:28 145.980
DX 1 28 Mar 00:44:15 00:47:39 23° 66° (ENE) 00:51:05 434.975-435.025
TIGRISAT 28 Mar 01:04:17 01:07:09 17° 296° (WNW) 01:09:58 435.000
Tancredo 1 28 Mar 01:09:01 01:10:49 14° 8° (N) 01:12:37 437.200
VELOX 1 28 Mar 01:10:50 01:15:14 78° 257° (WSW) 01:19:41 145.980
FO-29 28 Mar 01:15:14 01:20:34 34° 295° (WNW) 01:25:24 435.910
ISS 28 Mar 01:15:27 01:17:26 15° 8° (N) 01:19:24 437.550
UNISAT 6 28 Mar 01:15:43 01:17:38 13° 298° (WNW) 01:19:32 437.425
NANOSAT C BR1 28 Mar 01:19:47 01:23:58 61° 101° (E) 01:28:07 145.865
UKube-1 28 Mar 01:20:39 01:24:39 38° 70° (ENE) 01:28:40 .
EO-79 28 Mar 01:25:16 01:29:32 79° 103° (ESE) 01:33:44 145.935-145.965
SO-50 28 Mar 01:25:47 01:29:16 22° 248° (WSW) 01:32:45 436.795
RS-15 28 Mar 01:32:28 01:38:22 15° 266° (W) 01:44:11 29.354- 29.394
Oscar 19 28 Mar 01:41:27 01:42:08 10° 88° (E) 01:42:49 437.125/150
SPROUT 28 Mar 01:44:27 01:48:27 37° 262° (W) 01:52:29 437.525
AIST 2D 28 Mar 01:44:31 01:47:26 25° 289° (WNW) 01:50:20 435.315
ESTCUBE 1 28 Mar 01:44:46 01:46:16 11° 270° (W) 01:47:46 437.505/2401.250
POLYITAN 1 28 Mar 01:54:01 01:58:07 48° 287° (WNW) 02:02:10 437.675
50 SAT 28 Mar 01:57:11 02:00:10 27° 263° (W) 02:03:12 437.505
QB50P2 28 Mar 01:58:50 02:02:48 40° 289° (WNW) 02:06:44 145.880/145.840
Gurwin Techsat 1B 28 Mar 02:07:18 02:08:28 11° 88° (E) 02:09:39 435.225
DUCHIFAT 1 28 Mar 02:08:40 02:12:37 40° 288° (WNW) 02:16:32 145.980
BUGSAT 1 28 Mar 02:18:25 02:22:37 85° 107° (ESE) 02:26:44 437.445
ITUPSAT 1 28 Mar 02:18:56 02:21:25 14° 61° (ENE) 02:23:56 437.325
DX 1 28 Mar 02:19:44 02:23:39 33° 263° (W) 02:27:36 434.975-435.025
O/OREOS (USA 219) 28 Mar 02:21:30 02:24:47 19° 55° (NE) 02:28:02 437.305
Tancredo 1 28 Mar 02:44:42 02:47:40 34° 27° (NNE) 02:50:37 437.200
ISS 28 Mar 02:51:32 02:54:37 36° 27° (NNE) 02:57:42 437.550
NANOSAT C BR1 28 Mar 02:57:23 02:59:09 12° 298° (WNW) 03:00:54 145.865
UKube-1 28 Mar 02:57:47 03:00:48 18° 266° (W) 03:03:51 .
Oscar 19 28 Mar 03:16:55 03:22:07 90° 305° (NW) 03:27:19 437.125/150
ITAMSAT 1 28 Mar 03:31:41 03:32:27 10° 88° (E) 03:33:14 435.822/435.867
BEESAT 28 Mar 03:36:33 03:41:20 82° 76° (ENE) 03:46:08 436.000
MOZHAYETS 4 28 Mar 03:40:12 03:44:22 35° 70° (ENE) 03:48:33
Gurwin Techsat 1B 28 Mar 03:43:45 03:49:06 90° 288° (WNW) 03:54:25 435.225
ITUPSAT 1 28 Mar 03:53:54 03:58:41 69° 258° (WSW) 04:03:27 437.325
AO-7 28 Mar 03:55:54 04:01:55 22° 92° (E) 04:07:53 .
O/OREOS (USA 219) 28 Mar 04:00:01 04:04:28 49° 253° (WSW) 04:08:53 437.305
Tancredo 1 28 Mar 04:20:54 04:23:44 29° 224° (SW) 04:26:33 437.200
ISS 28 Mar 04:28:07 04:31:02 29° 224° (SW) 04:33:57 437.550
CUBESAT XI-V 28 Mar 04:37:17 04:40:55 24° 67° (ENE) 04:44:33 437.345
KKS-1 28 Mar 04:46:25 04:50:33 39° 70° (ENE) 04:54:43 437.445
Oscar 19 28 Mar 04:58:40 05:00:39 12° 302° (WNW) 05:02:39 437.125/150
ITAMSAT 1 28 Mar 05:07:22 05:12:36 89° 292° (WNW) 05:17:47 435.822/435.867
MOZHAYETS 4 28 Mar 05:17:59 05:21:35 23° 266° (W) 05:25:13
STARS 28 Mar 05:18:01 05:22:05 37° 70° (ENE) 05:26:11 437.465
BEESAT 28 Mar 05:19:20 05:19:41 10° 271° (W) 05:20:00 436.000
Gurwin Techsat 1B 28 Mar 05:26:01 05:28:15 13° 302° (WNW) 05:30:30 435.225
AO-85 28 Mar 05:26:34 05:29:45 23° 47° (NE) 05:32:59 145.980
AO-7 28 Mar 05:47:10 05:55:28 80° 291° (WNW) 06:03:45 .
CUBESAT XI-V 28 Mar 06:13:55 06:18:05 34° 263° (W) 06:22:18 437.345
KKS-1 28 Mar 06:23:58 06:27:14 20° 266° (W) 06:30:31 437.445
M-CUBED/EXP-1 PRIME 28 Mar 06:40:10 06:43:49 54° 68° (ENE) 06:47:48 437.505
XW-2D 28 Mar 06:44:11 06:45:45 12° 91° (E) 06:47:16 145.860 - 145.880
BEESAT 3 28 Mar 06:47:26 06:50:22 19° 45° (NE) 06:53:17 437.485
ITAMSAT 1 28 Mar 06:49:15 06:51:16 12° 302° (WNW) 06:53:17 435.822/435.867
XW-2B 28 Mar 06:49:47 06:51:46 14° 92° (E) 06:53:45 145.730 - 145.750
NO-84 28 Mar 06:54:22 06:57:01 32° 132° (SE) 06:59:37 435.350 FM
STARS 28 Mar 06:55:15 06:58:31 20° 266° (W) 07:01:51 437.465
XW-2C 28 Mar 06:59:27 07:02:08 18° 94° (E) 07:04:47 145.795 - 145.815
AO-85 28 Mar 07:06:37 07:10:10 32° 244° (WSW) 07:13:48 145.980
BEESAT 2 28 Mar 07:07:24 07:09:36 14° 41° (NE) 07:11:48 435.950
CUTE-I 28 Mar 07:09:43 07:14:11 26° 95° (E) 07:18:37 437.470
DOVE 4 28 Mar 07:11:27 07:16:32 44° 97° (E) 07:21:29 437.250
YUBILEINY 28 Mar 07:32:20 07:39:42 32° 83° (E) 07:47:01 435.215
AO-7 28 Mar 07:41:39 07:47:00 19° 311° (NW) 07:52:19 .
STRAND 1 28 Mar 07:46:52 07:51:51 54° 72° (ENE) 07:56:53 437.568
XW-2F 28 Mar 07:49:19 07:53:04 77° 102° (ESE) 07:56:46 145.980 - 146.000
LilacSat-2 28 Mar 07:53:55 07:57:42 85° 284° (WNW) 08:01:27 437.200
HO-68 28 Mar 07:55:20 08:00:13 19° 91° (E) 08:05:04 435.675
CUTE 1.7 + AOD 2 28 Mar 07:57:23 07:58:32 11° 89° (E) 07:59:40 437.475
NUDT-PHONESAT 28 Mar 08:09:32 08:13:12 70° 284° (WNW) 08:16:50 437.300
XW-2D 28 Mar 08:16:35 08:20:10 43° 287° (WNW) 08:23:43 145.860 - 145.880
M-CUBED/EXP-1 PRIME 28 Mar 08:17:39 08:18:44 11° 266° (W) 08:19:49 437.505
KAITUO 1B 28 Mar 08:19:10 08:22:46 51° 286° (WNW) 08:26:21 145.475/437.950
XW-2B 28 Mar 08:22:38 08:26:08 38° 288° (WNW) 08:29:36 145.730 - 145.750
BEESAT 3 28 Mar 08:24:19 08:28:12 46° 243° (WSW) 08:32:01 437.485
NO-84 28 Mar 08:32:20 08:34:35 20° 330° (NNW) 08:36:50 435.350 FM
XW-2C 28 Mar 08:33:07 08:36:21 28° 289° (WNW) 08:39:35 145.795 - 145.815
BEESAT 2 28 Mar 08:43:48 08:47:52 75° 239° (WSW) 08:51:54 435.950
CUTE-I 28 Mar 08:49:21 08:54:19 40° 291° (WNW) 08:59:14 437.470
DOVE 4 28 Mar 08:49:40 08:53:54 25° 294° (WNW) 08:58:03 437.250
UWE-3 28 Mar 08:56:15 08:58:27 14° 90° (E) 09:00:37 435.000/436.395/437.385
AAUSAT CUBESAT 2 28 Mar 09:00:03 09:02:54 18° 93° (E) 09:05:45 437.432
PRISM 28 Mar 09:14:50 09:17:06 15° 64° (ENE) 09:19:22 437.425
SEEDS 28 Mar 09:20:07 09:24:18 64° 101° (E) 09:28:28 437.485
Oscar 11 28 Mar 09:22:22 09:24:03 12° 90° (E) 09:25:44 .
XW-2A 28 Mar 09:26:13 09:29:27 42° 286° (WNW) 09:32:37 145.665 - 145.685
YUBILEINY 28 Mar 09:27:28 09:36:00 56° 283° (WNW) 09:44:33 435.215
STRAND 1 28 Mar 09:27:51 09:31:20 18° 268° (W) 09:34:51 437.568
CUTE 1.7 + AOD 2 28 Mar 09:30:35 09:34:46 62° 285° (WNW) 09:38:55 437.475
ZACube-1 28 Mar 09:32:04 09:35:09 20° 93° (E) 09:38:13 437.345
CUBEBUG 2 28 Mar 09:32:14 09:36:35 59° 100° (E) 09:40:46 437.445
PCSat 28 Mar 09:35:34 09:40:16 31° 109° (ESE) 09:45:00 145.827
HO-68 28 Mar 09:41:26 09:48:36 78° 289° (WNW) 09:55:46 435.675
FO-29 28 Mar 09:42:05 09:47:27 21° 60° (ENE) 09:52:34 435.910
AO-73 28 Mar 09:58:46 10:02:38 35° 97° (E) 10:06:26 145.935
TIGRISAT 28 Mar 10:24:43 10:29:06 41° 71° (ENE) 10:33:28 435.000
UWE-3 28 Mar 10:31:04 10:35:14 49° 287° (WNW) 10:39:16 435.000/436.395/437.385
AAUSAT CUBESAT 2 28 Mar 10:34:40 10:38:29 36° 288° (WNW) 10:42:18 437.432
UNISAT 6 28 Mar 10:35:15 10:39:50 57° 74° (ENE) 10:44:25 437.425
PRISM 28 Mar 10:48:03 10:51:58 47° 260° (W) 10:55:56 437.425
Oscar 11 28 Mar 10:56:19 11:00:33 59° 286° (WNW) 11:04:46 .
SEEDS 28 Mar 10:57:56 10:59:27 12° 297° (WNW) 11:00:58 437.485
ZACube-1 28 Mar 11:07:44 11:11:33 33° 290° (WNW) 11:15:16 437.345
CUBEBUG 2 28 Mar 11:10:33 11:12:39 13° 298° (WNW) 11:14:43 437.445
POLYITAN 1 28 Mar 11:13:21 11:14:59 12° 62° (ENE) 11:16:37 437.675
QB50P2 28 Mar 11:17:21 11:19:38 14° 63° (ENE) 11:21:55 145.880/145.840
PCSat 28 Mar 11:18:30 11:23:33 38° 307° (NW) 11:28:37 145.827
FO-29 28 Mar 11:23:52 11:31:43 85° 256° (WSW) 11:39:03 435.910
DUCHIFAT 1 28 Mar 11:26:37 11:28:46 14° 63° (ENE) 11:30:54 145.980
HO-68 28 Mar 11:31:14 11:35:12 16° 308° (NW) 11:39:10 435.675
RS-15 28 Mar 11:31:20 11:38:54 20° 97° (E) 11:46:34 29.354- 29.394
YUBILEINY 28 Mar 11:33:54 11:35:05 10° 307° (NW) 11:36:17 435.215
AO-73 28 Mar 11:35:38 11:38:37 19° 294° (WNW) 11:41:34 145.935
DELFI C3 28 Mar 11:36:32 11:40:29 64° 286° (WNW) 11:44:26 145.870
ESTCUBE 1 28 Mar 11:58:29 12:00:48 14° 91° (E) 12:03:07 437.505/2401.250
TIGRISAT 28 Mar 12:02:27 12:05:55 20° 267° (W) 12:09:23 435.000
NANOSAT C BR1 28 Mar 12:11:31 12:15:34 45° 72° (ENE) 12:19:39 145.865
UNISAT 6 28 Mar 12:14:16 12:16:51 15° 269° (W) 12:19:28 437.425
EO-79 28 Mar 12:17:14 12:21:25 57° 74° (ENE) 12:25:38 145.935-145.965
AIST 2D 28 Mar 12:18:03 12:21:35 74° 259° (WSW) 12:25:07 435.315
LO-87 28 Mar 12:35:06 12:38:45 71° 101° (ESE) 12:42:22 145.935 - 145.965
POLYITAN 1 28 Mar 12:45:56 12:50:12 67° 259° (WSW) 12:54:29 437.675
QB50P2 28 Mar 12:50:46 12:54:57 54° 260° (W) 12:59:11 145.880/145.840
Oscar 19 28 Mar 12:56:54 13:00:09 17° 62° (ENE) 13:03:25 437.125/150
DUCHIFAT 1 28 Mar 12:59:46 13:03:57 56° 259° (W) 13:08:09 145.980
VELOX 1 28 Mar 13:01:31 13:04:46 20° 93° (E) 13:08:01 145.980
BUGSAT 1 28 Mar 13:07:32 13:11:41 57° 74° (ENE) 13:15:53 437.445
FO-29 28 Mar 13:12:56 13:17:26 16° 272° (W) 13:21:50 435.910
50 SAT 28 Mar 13:21:35 13:23:57 17° 94° (E) 13:26:18 437.505
Gurwin Techsat 1B 28 Mar 13:27:03 13:30:46 20° 62° (ENE) 13:34:30 435.225
NO-84 28 Mar 13:27:40 13:30:25 28° 34° (NE) 13:33:19 435.350 FM
SPROUT 28 Mar 13:29:53 13:33:49 34° 97° (E) 13:37:42 437.525
ESTCUBE 1 28 Mar 13:33:31 13:37:56 56° 287° (WNW) 13:42:21 437.505/2401.250
RS-15 28 Mar 13:37:20 13:49:17 80° 118° (ESE) 14:01:40 29.354- 29.394
NANOSAT C BR1 28 Mar 13:48:56 13:51:29 16° 268° (W) 13:54:05 145.865
EO-79 28 Mar 13:55:44 13:57:32 12° 270° (W) 13:59:19 145.935-145.965
SO-50 28 Mar 14:01:36 14:03:29 12° 108° (ESE) 14:05:23 436.795
DX 1 28 Mar 14:07:17 14:11:26 40° 99° (E) 14:15:32 434.975-435.025
Oscar 19 28 Mar 14:33:54 14:38:57 62° 259° (WSW) 14:44:03 437.125/150
VELOX 1 28 Mar 14:37:11 14:41:21 39° 290° (WNW) 14:45:29 145.980
UKube-1 28 Mar 14:42:59 14:47:19 71° 102° (ESE) 14:51:38 .
BUGSAT 1 28 Mar 14:45:41 14:47:24 12° 270° (W) 14:49:06 437.445
ITAMSAT 1 28 Mar 14:48:01 14:51:35 19° 62° (ENE) 14:55:09 435.822/435.867
50 SAT 28 Mar 14:54:00 14:57:01 27° 289° (WNW) 15:00:00 437.505
AO-7 28 Mar 14:54:51 15:01:59 33° 57° (ENE) 15:09:06 .
Gurwin Techsat 1B 28 Mar 15:05:02 15:10:15 57° 259° (W) 15:15:31 435.225
NO-84 28 Mar 15:05:06 15:07:55 28° 228° (SW) 15:10:58 435.350 FM
SPROUT 28 Mar 15:06:17 15:09:30 21° 293° (WNW) 15:12:42 437.525
BEESAT 28 Mar 15:37:23 15:40:54 20° 94° (E) 15:44:23 436.000
SO-50 28 Mar 15:38:42 15:43:20 75° 303° (WNW) 15:47:57 436.795
DX 1 28 Mar 15:44:10 15:47:20 20° 295° (WNW) 15:50:27 434.975-435.025
RS-15 28 Mar 15:52:02 16:03:09 39° 324° (NW) 16:14:31 29.354- 29.394
ITUPSAT 1 28 Mar 15:54:35 15:58:45 29° 96° (E) 16:02:53 437.325
UKube-1 28 Mar 16:21:12 16:22:45 12° 299° (WNW) 16:24:18 .
ITAMSAT 1 28 Mar 16:25:25 16:30:35 59° 259° (W) 16:35:45 435.822/435.867
O/OREOS (USA 219) 28 Mar 16:34:24 16:37:31 19° 100° (E) 16:40:41 437.305
AO-7 28 Mar 16:46:06 16:54:17 60° 256° (WSW) 17:02:31 .
MOZHAYETS 4 28 Mar 17:11:30 17:16:05 83° 104° (ESE) 17:20:38
BEESAT 28 Mar 17:14:21 17:18:50 42° 290° (WNW) 17:23:17 436.000
SO-50 28 Mar 17:22:28 17:24:35 13° 323° (NW) 17:26:42 436.795
ITUPSAT 1 28 Mar 17:32:25 17:36:30 29° 293° (WNW) 17:40:35 437.325
YUBILEINY 28 Mar 17:42:47 17:47:27 15° 59° (ENE) 17:52:05 435.215
XW-2C 28 Mar 17:43:11 17:43:41 10° 63° (ENE) 17:44:10 145.795 - 145.815
CUBESAT XI-V 28 Mar 18:09:37 18:14:13 56° 100° (E) 18:18:48 437.345
RS-15 28 Mar 18:11:22 18:20:37 23° 358° (N) 18:29:50 29.354- 29.394
O/OREOS (USA 219) 28 Mar 18:12:16 18:16:35 42° 298° (WNW) 18:20:56 437.305
KKS-1 28 Mar 18:13:11 18:17:41 78° 102° (ESE) 18:22:09 437.445
DOVE 4 28 Mar 18:16:36 18:21:03 41° 70° (ENE) 18:25:46 437.250
PCSat 28 Mar 18:22:53 18:27:34 28° 49° (NE) 18:32:12 145.827
HO-68 28 Mar 18:25:52 18:29:56 16° 53° (NE) 18:34:00 435.675
XW-2F 28 Mar 18:30:11 18:33:39 35° 72° (ENE) 18:37:07 145.980 - 146.000
CUTE-I 28 Mar 18:31:19 18:36:23 44° 69° (ENE) 18:41:28 437.470
LilacSat-2 28 Mar 18:35:32 18:39:11 45° 74° (ENE) 18:42:50 437.200
STARS 28 Mar 18:42:58 18:47:24 72° 102° (ESE) 18:51:47 437.465
NUDT-PHONESAT 28 Mar 18:48:36 18:52:13 49° 74° (ENE) 18:55:50 437.300
MOZHAYETS 4 28 Mar 18:51:28 18:52:33 11° 300° (WNW) 18:53:38
XW-2D 28 Mar 18:57:14 19:01:03 84° 77° (ENE) 19:04:51 145.860 - 145.880
KAITUO 1B 28 Mar 18:58:45 19:02:28 68° 76° (ENE) 19:06:11 145.475/437.950
XW-2B 28 Mar 19:03:15 19:07:02 84° 254° (WSW) 19:10:51 145.730 - 145.750
XW-2C 28 Mar 19:13:36 19:17:21 61° 259° (W) 19:21:08 145.795 - 145.815
YUBILEINY 28 Mar 19:37:11 19:45:55 75° 80° (E) 19:54:38 435.215
CUBESAT XI-V 28 Mar 19:48:19 19:51:07 16° 297° (WNW) 19:53:56 437.345
AAUSAT CUBESAT 2 28 Mar 19:51:27 19:53:13 13° 64° (ENE) 19:55:00 437.432
KKS-1 28 Mar 19:52:10 19:53:35 11° 300° (WNW) 19:55:00 437.445
M-CUBED/EXP-1 PRIME 28 Mar 19:52:23 19:56:52 44° 104° (ESE) 20:01:19 437.505
UWE-3 28 Mar 19:53:24 19:55:46 14° 63° (ENE) 19:58:07 435.000/436.395/437.385
DOVE 4 28 Mar 19:55:17 19:58:55 22° 269° (W) 20:02:44 437.250
XW-2A 28 Mar 19:57:05 20:00:27 56° 75° (ENE) 20:03:51 145.665 - 145.685
STRAND 1 28 Mar 19:58:20 20:01:46 18° 92° (E) 20:05:10 437.568
XW-2F 28 Mar 20:05:38 20:07:55 15° 267° (W) 20:10:13 145.980 - 146.000
PCSat 28 Mar 20:05:58 20:11:08 46° 247° (WSW) 20:16:16 145.827
HO-68 28 Mar 20:09:25 20:16:34 80° 71° (ENE) 20:23:44 435.675
SEEDS 28 Mar 20:11:37 20:15:33 42° 72° (ENE) 20:19:30 437.485
LilacSat-2 28 Mar 20:12:04 20:13:42 12° 269° (W) 20:15:19 437.200
CUTE-I 28 Mar 20:12:17 20:16:34 24° 266° (W) 20:20:54 437.470
Oscar 11 28 Mar 20:18:46 20:19:24 10° 61° (ENE) 20:20:03 .
STARS 28 Mar 20:21:28 20:23:08 12° 299° (WNW) 20:24:48 437.465
CUTE 1.7 + AOD 2 28 Mar 20:22:45 20:26:57 90° 20° (NNE) 20:31:10 437.475
NUDT-PHONESAT 28 Mar 20:25:28 20:26:24 11° 269° (W) 20:27:21 437.300
RS-15 28 Mar 20:27:11 20:38:17 36° 33° (NNE) 20:49:01 29.354- 29.394
ZACube-1 28 Mar 20:27:58 20:31:02 18° 66° (ENE) 20:34:04 437.345
CUBEBUG 2 28 Mar 20:29:29 20:34:04 51° 73° (ENE) 20:38:38 437.445
AO-73 28 Mar 20:53:56 20:57:51 30° 70° (ENE) 21:01:43 145.935
Tancredo 1 28 Mar 20:56:29 20:59:37 70° 142° (SE) 21:02:46 437.200
ISS 28 Mar 21:07:21 21:10:36 79° 142° (SE) 21:13:52 437.550
AO-85 28 Mar 21:20:15 21:24:41 71° 121° (ESE) 21:28:49 145.980
AAUSAT CUBESAT 2 28 Mar 21:24:10 21:28:12 56° 260° (W) 21:32:15 437.432
UWE-3 28 Mar 21:27:03 21:31:41 65° 259° (W) 21:36:16 435.000/436.395/437.385
M-CUBED/EXP-1 PRIME 28 Mar 21:27:26 21:30:59 22° 299° (WNW) 21:34:32 437.505
YUBILEINY 28 Mar 21:35:29 21:41:45 23° 280° (W) 21:48:02 435.215
STRAND 1 28 Mar 21:36:16 21:41:15 54° 288° (WNW) 21:46:12 437.568
SEEDS 28 Mar 21:48:57 21:51:26 15° 268° (W) 21:53:56 437.485
